| time (UTC) | temp C | wind direction | speed KPH | gust KPH | rain 1hr cm | rain 24hr cm | rain mn cm | humidity % | barometer mb |
| 20260904195208 | 13 | 259 | 24.1 | 45.1 | 0.00 | 1.14 | 1.14 | 90 | 998.7 |
| 20260904194707 | 13 | 266 | 17.7 | 35.4 | 0.00 | 1.14 | 1.14 | 91 | 998.7 |
| 20260904194207 | 13 | 276 | 25.7 | 35.4 | 0.00 | 1.14 | 1.14 | 91 | 998.7 |
| 20260904193708 | 13 | 271 | 25.7 | 33.8 | 0.00 | 1.14 | 1.14 | 91 | 998.5 |
| 20260904193206 | 14 | 274 | 19.3 | 29.0 | 0.00 | 1.14 | 1.14 | 91 | 998.2 |
| 20260904191709 | 14 | 263 | 17.7 | 29.0 | 0.00 | 1.14 | 1.14 | 92 | 998.2 |
| 20260904184707 | 14 | 245 | 22.5 | 38.6 | 0.00 | 1.14 | 1.14 | 91 | 997.6 |
| 20260904183206 | 13 | 285 | 16.1 | 25.7 | 0.00 | 1.14 | 1.14 | 91 | 997.5 |
| 20260904182706 | 13 | 234 | 6.4 | 22.5 | 0.00 | 1.14 | 1.14 | 91 | 997.4 |
| 20260904182208 | 13 | 252 | 4.8 | 20.9 | 0.00 | 1.14 | 1.14 | 91 | 997.4 |
| 20260904181206 | 13 | 252 | 4.8 | 11.3 | 0.05 | 1.14 | 1.14 | 91 | 997.4 |
| 20260904180708 | 13 | 256 | 4.8 | 9.7 | 0.13 | 1.14 | 1.14 | 91 | 997.4 |
| 20260904175706 | 13 | 248 | 6.4 | 11.3 | 0.23 | 1.14 | 1.14 | 91 | 997.4 |
| 20260904175206 | 13 | 241 | 1.6 | 9.7 | 0.25 | 1.14 | 1.14 | 90 | 997.3 |
| 20260904173207 | 13 | 227 | 4.8 | 11.3 | 0.38 | 1.14 | 1.14 | 90 | 997.4 |
| 20260904172707 | 13 | 219 | 6.4 | 9.7 | 0.38 | 1.14 | 1.14 | 90 | 997.4 |
| 20260904171706 | 14 | 228 | 4.8 | 11.3 | 0.36 | 1.12 | 1.12 | 89 | 997.5 |
| 20260904170207 | 15 | 254 | 11.3 | 14.5 | 0.18 | 0.94 | 0.94 | 89 | 997.4 |
| 20260904165707 | 15 | 222 | 6.4 | 12.9 | 0.15 | 0.91 | 0.91 | 89 | 997.3 |
| 20260904164707 | 15 | 262 | 11.3 | 16.1 | 0.10 | 0.86 | 0.86 | 89 | 997.3 |
| 20260904164206 | 15 | 225 | 9.7 | 12.9 | 0.05 | 0.81 | 0.81 | 89 | 997.3 |
| 20260904161208 | 15 | 225 | 9.7 | 16.1 | 0.03 | 0.76 | 0.76 | 90 | 997.2 |
| 20260904155206 | 16 | 249 | 11.3 | 16.1 | 0.03 | 0.76 | 0.76 | 91 | 997.5 |
| 20260904154206 | 16 | 209 | 6.4 | 9.7 | 0.03 | 0.76 | 0.76 | 91 | 997.6 |
| 20260904153706 | 16 | 224 | 8.0 | 12.9 | 0.03 | 0.76 | 0.76 | 91 | 997.5 |
| 20260904152206 | 16 | 299 | 6.4 | 11.3 | 0.00 | 0.74 | 0.74 | 91 | 997.5 |
| 20260904151707 | 16 | 227 | 6.4 | 9.7 | 0.00 | 0.74 | 0.74 | 92 | 997.5 |
| 20260904150206 | 15 | 241 | 3.2 | 11.3 | 0.00 | 0.74 | 0.74 | 92 | 997.6 |
| 20260904143707 | 15 | 189 | 8.0 | 16.1 | 0.00 | 0.74 | 0.74 | 92 | 997.5 |
| 20260904143208 | 15 | 179 | 8.0 | 9.7 | 0.00 | 0.74 | 0.74 | 92 | 997.6 |
| 20260904142707 | 14 | 184 | 6.4 | 8.0 | 0.00 | 0.76 | 0.74 | 92 | 997.8 |
| 20260904142206 | 14 | 176 | 3.2 | 11.3 | 0.03 | 0.76 | 0.74 | 92 | 997.8 |
| 20260904141706 | 14 | 219 | 6.4 | 11.3 | 0.03 | 0.81 | 0.74 | 92 | 997.9 |
| 20260904141207 | 14 | 220 | 4.8 | 9.7 | 0.10 | 0.84 | 0.74 | 92 | 997.9 |
| 20260904140709 | 14 | 221 | 4.8 | 9.7 | 0.15 | 0.84 | 0.74 | 91 | 998.0 |
| 20260904135708 | 14 | 244 | 3.2 | 14.5 | 0.23 | 0.84 | 0.74 | 91 | 998.1 |
| 20260904134206 | 13 | 222 | 8.0 | 12.9 | 0.23 | 0.84 | 0.74 | 91 | 998.1 |
| 20260904133706 | 13 | 289 | 3.2 | 11.3 | 0.25 | 0.84 | 0.74 | 91 | 998.2 |
| 20260904132207 | 15 | 285 | 19.3 | 29.0 | 0.25 | 0.81 | 0.71 | 91 | 998.2 |
| 20260904131706 | 16 | 288 | 22.5 | 32.2 | 0.28 | 0.81 | 0.71 | 92 | 998.2 |
| 20260904131207 | 16 | 236 | 4.8 | 20.9 | 0.18 | 0.74 | 0.61 | 92 | 997.8 |
| 20260904130706 | 16 | 276 | 4.8 | 14.5 | 0.13 | 0.71 | 0.56 | 92 | 997.8 |
| 20260904125706 | 16 | 206 | 9.7 | 20.9 | 0.10 | 0.66 | 0.51 | 92 | 997.6 |
| 20260904125206 | 16 | 190 | 11.3 | 20.9 | 0.10 | 0.66 | 0.51 | 92 | 997.6 |
| 20260904124208 | 16 | 201 | 11.3 | 16.1 | 0.15 | 0.66 | 0.51 | 92 | 997.6 |
| 20260904123206 | 16 | 195 | 11.3 | 20.9 | 0.10 | 0.58 | 0.46 | 92 | 997.8 |
| 20260904122206 | 16 | 184 | 11.3 | 20.9 | 0.15 | 0.58 | 0.46 | 92 | 997.8 |
| 20260904115706 | 16 | 165 | 8.0 | 20.9 | 0.13 | 0.53 | 0.41 | 92 | 998.4 |
| 20260904115205 | 16 | 202 | 9.7 | 12.9 | 0.15 | 0.53 | 0.41 | 92 | 998.4 |
| 20260904114708 | 16 | 188 | 8.0 | 12.9 | 0.13 | 0.51 | 0.38 | 92 | 998.4 |
| 20260904113706 | 16 | 182 | 4.8 | 12.9 | 0.13 | 0.48 | 0.36 | 92 | 998.6 |
| 20260904112205 | 16 | 196 | 8.0 | 11.3 | 0.13 | 0.43 | 0.30 | 91 | 998.7 |
| 20260904111706 | 15 | 182 | 6.4 | 11.3 | 0.13 | 0.43 | 0.30 | 92 | 998.6 |
| 20260904111208 | 15 | 163 | 6.4 | 11.3 | 0.13 | 0.43 | 0.30 | 91 | 998.6 |
| 20260904105207 | 15 | 183 | 8.0 | 12.9 | 0.10 | 0.43 | 0.25 | 91 | 999.1 |
| 20260904104206 | 15 | 189 | 8.0 | 16.1 | 0.08 | 0.41 | 0.23 | 91 | 999.1 |
| 20260904102705 | 15 | 171 | 9.7 | 16.1 | 0.08 | 0.38 | 0.18 | 91 | 999.3 |
| 20260904102205 | 16 | 186 | 12.9 | 20.9 | 0.05 | 0.36 | 0.15 | 91 | 999.3 |
| 20260904101705 | 16 | 193 | 14.5 | 24.1 | 0.05 | 0.36 | 0.15 | 91 | 999.4 |
| 20260904095705 | 16 | 183 | 14.5 | 22.5 | 0.03 | 0.36 | 0.13 | 91 | 999.7 |
| 20260904093206 | 16 | 196 | 14.5 | 29.0 | 0.03 | 0.36 | 0.13 | 91 | 999.9 |
| 20260904092207 | 16 | 185 | 14.5 | 24.1 | 0.03 | 0.33 | 0.10 | 91 | 1000.2 |
| 20260904091705 | 16 | 185 | 14.5 | 27.4 | 0.03 | 0.36 | 0.10 | 91 | 1000.5 |
| 20260904091205 | 16 | 176 | 12.9 | 22.5 | 0.03 | 0.36 | 0.10 | 91 | 1000.5 |
| 20260904090705 | 15 | 181 | 9.7 | 20.9 | 0.05 | 0.36 | 0.10 | 91 | 1000.5 |
| 20260904090207 | 15 | 202 | 9.7 | 14.5 | 0.08 | 0.36 | 0.10 | 91 | 1000.6 |
| 20260904085707 | 15 | 177 | 12.9 | 20.9 | 0.08 | 0.36 | 0.10 | 91 | 1000.6 |
| 20260904085206 | 15 | 171 | 12.9 | 22.5 | 0.08 | 0.36 | 0.10 | 91 | 1000.8 |
| 20260904084705 | 15 | 185 | 11.3 | 22.5 | 0.10 | 0.36 | 0.10 | 91 | 1000.8 |
| 20260904084207 | 15 | 182 | 9.7 | 16.1 | 0.10 | 0.36 | 0.10 | 91 | 1000.8 |
| 20260904083706 | 15 | 173 | 11.3 | 16.1 | 0.10 | 0.36 | 0.10 | 90 | 1001.0 |
| 20260904082707 | 15 | 171 | 11.3 | 16.1 | 0.08 | 0.36 | 0.08 | 90 | 1001.0 |
| 20260904080705 | 15 | 187 | 11.3 | 16.1 | 0.05 | 0.33 | 0.05 | 90 | 1001.3 |
| 20260904075705 | 15 | 182 | 9.7 | 16.1 | 0.03 | 0.30 | 0.03 | 89 | 1001.2 |
| 20260904074706 | 15 | 182 | 14.5 | 20.9 | 0.00 | 0.28 | 0.00 | 89 | 1001.3 |
| 20260904074205 | 15 | 175 | 11.3 | 20.9 | 0.00 | 0.28 | 0.00 | 89 | 1001.5 |
| 20260904073207 | 15 | 172 | 12.9 | 20.9 | 0.00 | 0.33 | 0.00 | 89 | 1001.3 |
| 20260904072706 | 15 | 156 | 9.7 | 20.9 | 0.00 | 0.33 | 0.00 | 89 | 1001.7 |
| 20260904070705 | 14 | 165 | 8.0 | 20.9 | 0.00 | 0.36 | 0.00 | 89 | 1001.7 |
| 20260904065705 | 14 | 162 | 9.7 | 16.1 | 0.00 | 0.36 | 0.00 | 89 | 1001.9 |
| 20260904064706 | 14 | 167 | 9.7 | 11.3 | 0.00 | 0.36 | 0.00 | 89 | 1002.0 |
| 20260904064205 | 14 | 174 | 9.7 | 16.1 | 0.00 | 0.36 | 0.00 | 89 | 1002.2 |
| 20260904062705 | 14 | 162 | 8.0 | 16.1 | 0.00 | 0.36 | 0.00 | 89 | 1002.3 |
| 20260904061707 | 14 | 170 | 8.0 | 11.3 | 0.00 | 0.36 | 0.00 | 88 | 1002.7 |
| 20260904060705 | 14 | 157 | 8.0 | 12.9 | 0.00 | 0.36 | 0.00 | 88 | 1002.7 |
| 20260904055707 | 14 | 164 | 4.8 | 8.0 | 0.00 | 0.36 | 0.00 | 88 | 1002.7 |
| 20260904055205 | 14 | 167 | 6.4 | 8.0 | 0.00 | 0.36 | 0.00 | 87 | 1002.9 |
| 20260904053705 | 14 | 190 | 3.2 | 8.0 | 0.00 | 0.36 | 0.00 | 87 | 1003.2 |
| 20260904052705 | 14 | 218 | 4.8 | 9.7 | 0.00 | 0.38 | 0.00 | 87 | 1003.3 |
| 20260904052205 | 14 | 228 | 6.4 | 12.9 | 0.00 | 0.38 | 0.00 | 86 | 1003.4 |
| 20260904051706 | 14 | 231 | 8.0 | 12.9 | 0.00 | 0.38 | 0.00 | 86 | 1003.3 |
| 20260904051205 | 14 | 250 | 4.8 | 12.9 | 0.00 | 0.38 | 0.00 | 86 | 1003.3 |
| 20260904050705 | 14 | 203 | 9.7 | 16.1 | 0.00 | 0.38 | 0.00 | 86 | 1003.3 |
| 20260904045706 | 14 | 249 | 9.7 | 20.9 | 0.00 | 0.38 | 0.00 | 86 | 1003.5 |
| 20260904045205 | 14 | 257 | 9.7 | 14.5 | 0.00 | 0.38 | 0.00 | 86 | 1003.5 |
| 20260904044707 | 14 | 233 | 9.7 | 16.1 | 0.00 | 0.38 | 0.00 | 86 | 1003.4 |
| 20260904042205 | 14 | 230 | 9.7 | 16.1 | 0.00 | 0.38 | 0.00 | 86 | 1003.5 |
| 20260904035205 | 15 | 230 | 9.7 | 20.9 | 0.00 | 0.41 | 0.00 | 86 | 1003.9 |
| 20260904034206 | 15 | 281 | 8.0 | 14.5 | 0.00 | 0.41 | 0.00 | 86 | 1004.1 |
| 20260904033704 | 15 | 207 | 4.8 | 9.7 | 0.00 | 0.41 | 0.00 | 86 | 1004.1 |
| 20260904031705 | 15 | 223 | 9.7 | 12.9 | 0.00 | 0.41 | 0.00 | 86 | 1004.3 |
| 20260904030704 | 15 | 257 | 8.0 | 11.3 | 0.00 | 0.41 | 0.00 | 85 | 1004.4 |
| 20260904025204 | 15 | 257 | 8.0 | 20.9 | 0.00 | 0.41 | 0.00 | 85 | 1004.3 |
| 20260904024704 | 15 | 269 | 11.3 | 16.1 | 0.00 | 0.41 | 0.00 | 85 | 1004.3 |
| 20260904022704 | 15 | 246 | 12.9 | 25.7 | 0.00 | 0.41 | 0.00 | 84 | 1004.5 |
| 20260904021204 | 15 | 248 | 11.3 | 25.7 | 0.00 | 0.41 | 0.00 | 85 | 1004.4 |
| 20260904020704 | 15 | 247 | 16.1 | 27.4 | 0.00 | 0.41 | 0.00 | 85 | 1004.7 |
| 20260904020204 | 15 | 261 | 16.1 | 33.8 | 0.00 | 0.41 | 0.00 | 85 | 1004.7 |
| 20260904014204 | 15 | 252 | 16.1 | 27.4 | 0.00 | 0.41 | 0.00 | 85 | 1004.8 |
| 20260904013204 | 15 | 247 | 24.1 | 32.2 | 0.00 | 0.41 | 0.00 | 85 | 1004.7 |
| 20260904012704 | 15 | 247 | 19.3 | 27.4 | 0.00 | 0.41 | 0.00 | 85 | 1004.7 |
| 20260904011706 | 15 | 263 | 11.3 | 25.7 | 0.00 | 0.43 | 0.00 | 85 | 1004.6 |
| 20260904011205 | 15 | 245 | 11.3 | 27.4 | 0.00 | 0.46 | 0.00 | 85 | 1004.8 |
| 20260904010204 | 15 | 249 | 16.1 | 27.4 | 0.00 | 0.48 | 0.00 | 85 | 1004.8 |
| 20260904005204 | 15 | 244 | 14.5 | 24.1 | 0.00 | 0.48 | 0.00 | 84 | 1004.8 |
| 20260904004704 | 15 | 255 | 9.7 | 24.1 | 0.00 | 0.48 | 0.00 | 84 | 1004.9 |
| 20260904003706 | 15 | 241 | 19.3 | 25.7 | 0.00 | 0.48 | 0.00 | 84 | 1005.1 |
| 20260904003205 | 15 | 229 | 12.9 | 27.4 | 0.00 | 0.48 | 0.00 | 84 | 1005.0 |
| 20260904002206 | 15 | 267 | 16.1 | 29.0 | 0.00 | 0.48 | 0.00 | 84 | 1005.0 |
| 20260904001706 | 15 | 253 | 16.1 | 33.8 | 0.00 | 0.48 | 0.00 | 84 | 1005.0 |
| 20260904001206 | 15 | 248 | 17.7 | 27.4 | 0.00 | 0.48 | 0.00 | 84 | 1005.0 |
| 20260904000705 | 15 | 270 | 16.1 | 27.4 | 0.00 | 0.48 | 0.00 | 84 | 1004.9 |
| 20260904000211 | 15 | 259 | 11.3 | 24.1 | 0.00 | 0.48 | 0.00 | 84 | 1004.8 |
| 20260903235711 | 15 | 256 | 17.7 | 25.7 | 0.00 | 0.48 | 0.00 | 84 | 1005.3 |
| 20260903234710 | 15 | 264 | 14.5 | 27.4 | 0.00 | 0.48 | 0.00 | 84 | 1005.3 |
| 20260903233210 | 16 | 265 | 17.7 | 29.0 | 0.00 | 0.48 | 0.00 | 85 | 1005.4 |
| 20260903232710 | 16 | 243 | 19.3 | 33.8 | 0.00 | 0.48 | 0.00 | 85 | 1005.1 |
| 20260903232210 | 16 | 232 | 11.3 | 29.0 | 0.00 | 0.48 | 0.00 | 85 | 1005.0 |
| 20260903231709 | 16 | 255 | 17.7 | 32.2 | 0.00 | 0.48 | 0.00 | 85 | 1005.0 |
| 20260903230709 | 16 | 255 | 11.3 | 27.4 | 0.00 | 0.48 | 0.00 | 86 | 1005.1 |
| 20260903230212 | 16 | 279 | 17.7 | 29.0 | 0.00 | 0.48 | 0.00 | 86 | 1005.2 |
| 20260903224711 | 16 | 254 | 11.3 | 27.4 | 0.00 | 0.48 | 0.00 | 87 | 1005.3 |
| 20260903223709 | 16 | 245 | 16.1 | 29.0 | 0.00 | 0.48 | 0.00 | 87 | 1005.3 |
| 20260903222209 | 16 | 257 | 19.3 | 27.4 | 0.00 | 0.48 | 0.00 | 87 | 1005.4 |
| 20260903215709 | 16 | 259 | 17.7 | 29.0 | 0.00 | 0.48 | 0.48 | 87 | 1005.5 |
| 20260903214712 | 16 | 262 | 11.3 | 24.1 | 0.00 | 0.48 | 0.48 | 87 | 1005.4 |
| 20260903213711 | 16 | 262 | 9.7 | 25.7 | 0.00 | 0.48 | 0.48 | 87 | 1005.4 |
| 20260903211210 | 16 | 246 | 19.3 | 27.4 | 0.00 | 0.51 | 0.48 | 87 | 1005.4 |
| 20260903210709 | 16 | 250 | 16.1 | 22.5 | 0.00 | 0.51 | 0.48 | 87 | 1005.4 |
| 20260903210209 | 16 | 269 | 19.3 | 29.0 | 0.00 | 0.51 | 0.48 | 87 | 1005.4 |
| 20260903205710 | 16 | 227 | 11.3 | 20.9 | 0.00 | 0.51 | 0.48 | 87 | 1005.4 |
| 20260903204709 | 16 | 251 | 17.7 | 32.2 | 0.00 | 0.51 | 0.48 | 86 | 1005.4 |
| 20260903204210 | 16 | 265 | 11.3 | 24.1 | 0.00 | 0.51 | 0.48 | 86 | 1005.4 |
| 20260903203709 | 16 | 234 | 14.5 | 32.2 | 0.00 | 0.51 | 0.48 | 86 | 1005.4 |
| 20260903201709 | 16 | 243 | 17.7 | 32.2 | 0.00 | 0.51 | 0.48 | 85 | 1005.4 |
| 20260903200710 | 16 | 266 | 19.3 | 35.4 | 0.00 | 0.51 | 0.48 | 85 | 1005.4 |